Other Public Products
Issued by NWS Grand Forks, ND

Home | Current Version | Previous Version | Text Only | Print | Product List | Glossary Off
Versions: 1 2 3 4 5 6 7 8 9 10 11 12 13 14 15 16 17 18 19 20 21 22 23 24 25 26 27 28 29 30 31 32 33 34 35 36 37 38 39 40 41 42 43 44 45 46 47 48 49 50

000
FPUS83 KFGF 290531
OPUFGF
PRAIRIE TO PINES WEATHER ROUNDUP
NATIONAL WEATHER SERVICE EASTERN NORTH DAKOTA/GRAND FORKS ND
1200 AM CDT TUE JUL 29 2014

 **SATELLITE DATA USED TO AUGMENT SKY COVER AT AUTOMATED STATIONS**
 *****  WEATHER ACROSS EASTERN NORTH DAKOTA  *****

CITY           SKY/WX    TMP DP  RH WIND       PRES   REMARKS
GRAND FORKS    CLEAR     56  54  93 W7        30.18S
GRAND FORKS AF CLEAR     56  56 100 W2        30.19F
GRAND CITY NWS   N/A     57 N/A N/A MISG        N/A
BUXTON           N/A     61  58  90 CALM        N/A
DEVILS LAKE    CLEAR     59  54  82 CALM      30.20S
FARGO          CLEAR     58  53  84 W5        30.19S
WAHPETON ARPT  CLEAR     54  50  87 W3        30.19F
$$

 *****  WEATHER ACROSS CENTRAL AND WESTERN NORTH DAKOTA  *****

CITY           SKY/WX    TMP DP  RH WIND       PRES   REMARKS
JAMESTOWN      CLEAR     56  52  86 CALM      30.22S
BISMARCK       CLEAR     59  52  77 E3        30.24S
MINOT          CLEAR     63  55  75 S3        30.22S
MINOT AFB      CLEAR     60  57  89 S5        30.21F
GARRISON         N/A     57  53  86 CALM      30.23F
WILLISTON      CLEAR     67  55  65 CALM      30.22S
DICKINSON      PTCLDY    58  52  80 SE8       30.24F
HETTINGER      CLEAR     59  50  72 SE6       30.27F
$$

 *****  OTHER OBSERVATIONS NORTHEAST NORTH DAKOTA  *****

CITY           SKY/WX    TMP DP  RH WIND       PRES   REMARKS
WALHALLA         N/A     55  55 100 CALM        N/A
LANGDON        FAIR      50  50 100 SW3       30.21S
CAVALIER       FAIR      57  54  88 CALM      30.18S
GRAFTON        FAIR      59  57  94 W5        30.18S
CANDO          FAIR      54  54 100 CALM      30.22S
FORT TOTTEN      N/A     56  53  89 CALM      29.95
ROLLA          FAIR      50  50 100 CALM      30.24S
RUGBY          FAIR      57  55  94 CALM      30.22S
 ***** THE ABOVE OBSERVATIONS ARE NON NWS ARE NOT QUALITY
        CONTROLLED AND MAY MIS-REPORT RAIN FOR SNOW...
$$

 *****  OTHER OBSERVATIONS SOUTHEAST NORTH DAKOTA *****

CITY           SKY/WX    TMP DP  RH WIND       PRES   REMARKS
COOPERSTOWN    NOT AVBL
VALLEY CITY    FAIR      55  55 100 CALM      30.22S
OAKES          NOT AVBL
GWINNER        CLEAR     55  54  94 W7        30.22F
BUFFALO        NOT AVBL
WYNDMERE       NOT AVBL
 ***** THE ABOVE OBSERVATIONS ARE NON NWS ARE NOT QUALITY
       CONTROLLED AND MAY MIS-REPORT RAIN FOR SNOW...
$$

  *****  WEATHER ACROSS NORTHERN MINNESOTA  *****

CITY           SKY/WX    TMP DP  RH WIND       PRES   REMARKS
FLAG ISLAND    CLEAR     68  57  68 W7        30.12F
WARROAD        CLEAR     61  55  82 W8        30.16S
ROSEAU         CLEAR     61  55  82 W6        30.16S
HALLOCK        CLEAR     59  55  88 CALM      30.17S
THF RVR FALLS  CLEAR     59  55  88 CALM      30.18S
HALSTAD          N/A     58  54  86 NW5         N/A
FOSSTON        CLEAR     52  46  82 CALM      30.19F
BAUDETTE       CLEAR     63  56  78 W6        30.15S
WASKISH        CLEAR     64  57  77 NW10      30.14F
CROOKSTON      CLEAR     57  55  94 CALM      30.19S
$$
  *****  WEATHER ACROSS CENTRAL AND WEST MINNESOTA  *****

CITY           SKY/WX    TMP DP  RH WIND       PRES   REMARKS
BEMIDJI        CLEAR     56  52  86 NW6       30.17S
PARK RAPIDS    CLEAR     53  52  96 NW6       30.18F
WADENA         CLEAR     55  54  94 W3        30.18F
DETROIT LAKES  CLEAR     59  55  88 CALM      30.20S
MOORHEAD       CLEAR     61  57  88 CALM      30.19F
FERGUS FALLS   CLEAR     57  52  82 CALM      30.19F
ELBOW LAKE     FAIR      59  55  88 CALM      30.19F
MORRIS MN      CLEAR     55  54  94 NW3       30.19S
STAPLES        CLEAR     55  54  94 CALM      30.18S
WHEATON        CLEAR     57  54  88 CALM      30.22S
$$
  *****  WEATHER ELSEWHERE ACROSS MINNESOTA  *****

CITY           SKY/WX    TMP DP  RH WIND       PRES   REMARKS
DULUTH         PTCLDY    62  54  74 NW8       30.10F
INTRNTL FALLS  PTCLDY    56  55  97 CALM      30.11F
ELY            CLOUDY    57  54  88 CALM      30.11F
CLOQUET        CLEAR     61  52  72 NW6       30.11F
BRAINERD       CLEAR     62  54  74 NW3       30.17S
HIBBING        PTCLDY    62  54  74 N9        30.13S
ALEXANDRIA     CLEAR     60  54  80 W5        30.21S
SAINT CLOUD    CLEAR     62  55  77 NW5       30.15S
MINNEAPOLIS    CLEAR     66  56  70 NW6       30.13S
$$

  *****  WEATHER ACROSS SOUTH DAKOTA  *****

CITY           SKY/WX    TMP DP  RH WIND       PRES   REMARKS
SIOUX FALLS    CLEAR     57  54  89 CALM      30.22F
BROOKINGS      NOT AVBL
WATERTOWN      CLEAR     57  52  83 CALM      30.23S
HURON          CLEAR     57  52  83 CALM      30.22S
SISSETON         N/A     54  53  97 NW3       30.20S
ABERDEEN       CLEAR     51  50  96 SW3       30.23S
MITCHELL       CLEAR     60  54  80 CALM      30.23S
PIERRE         CLEAR     60  52  74 NE6       30.22S
MOBRIDGE       CLEAR     58  51  78 CALM      30.21F
RAPID CITY     CLEAR     61  51  70 SE3       30.28R
$$

  *****  SOME WEATHER IN NEARBY STATES *****

CITY           SKY/WX    TMP DP  RH WIND       PRES   REMARKS
GLASGOW MT     CLEAR     70  50  49 E13       30.20S
GREAT FALLS MT MOCLDY    76  45  33 N9        30.15S
CHEYENNE WY    MOCLDY    62  54  74 W8G20     30.35R
SCOTTSBLUFF NE CLEAR     70  61  73 E9        30.22F
OMAHA NE       CLEAR     64  56  75 N6        30.19S
DES MOINES IA  CLEAR     63  59  87 W5        30.16S
DAVENPORT IA   CLEAR     53  51  93 CALM      30.12S
CHICAGO IL     MOCLDY    62  50  64 S3        30.05S
EAU CLAIRE WI  CLEAR     60  54  80 SW3       30.09F
LA CROSSE WI   CLEAR     63  56  78 SE3       30.10S
$$

  *****  SOME NATIONAL WEATHER *****

CITY           SKY/WX    TMP DP  RH WIND       PRES   REMARKS
LA GUARDIA NY  PTCLDY    69  57  65 NW21G32   29.70R
RALEIGH NC     PTCLDY    70  57  63 CALM      29.88S
ATLANTA GA     CLEAR     72  60  66 NW9       29.98S
NEW ORLEANS LA MOCLDY    83  77  82 NW3       30.01F HX  92
OKLAHOMA CITY  MOCLDY    78  61  55 CALM      30.17S
ALBUQUERQUE NM CLOUDY    73  58  59 E8        30.33R
SALT LAKE CITY CLOUDY    70  61  73 N12       30.24R
LOS ANGELES CA PTCLDY    69  63  81 W10       30.03R
BOISE ID       PTCLDY    88  46  23 E12       30.04S
SEATTLE WA     CLEAR     74  54  49 N12       30.10R
$$

*** WEATHER ACROSS MANITOBA...SASKATCHEWAN AND ONTARIO ***
                ***ONTARIO***

CITY           SKY/WX    TMP DP  RH WIND       PRES   REMARKS
GERALDTON      PTCLDY    55  55 100 NW5       29.96F
THUNDER BAY    MOCLDY    57  57 100 SW7       30.00F
SIOUX LOOKOUT  CLOUDY    54  54 100 S5        30.08
TORONTO        PTCLDY    57  50  77 NW9       29.88S
BIG TROUT LK   CLEAR     57  54  88 NE6       30.04R
PICKLE LAKE    NOT AVBL
DRYDEN         CLOUDY    61  55  82 SW8       30.09F
KENORA         MOCLDY    64  57  77 NW8       30.13
$$
                *** MANITOBA***

CITY           SKY/WX    TMP DP  RH WIND       PRES   REMARKS
BRANDON        CLEAR     54  52  94 NW3       30.21S
DAUPHIN        CLEAR     55  52  88 W6        30.19S
ISLAND LAKE    CLOUDY    66  57  72 NW3       30.06S
PILOT MOUND      N/A     54  50  87 N3          N/A
THE PAS        CLEAR     57  54  88 CALM      30.16S
THOMPSON       PTCLDY    54  50  87 W2        30.08F
WINNIPEG       CLEAR     55  52  88 W7        30.17F
LYNN LAKE      CLEAR     66  54  63 N7        30.12S
CHURCHILL      CLOUDY    46  46 100 SE9       30.17R FOG
GILLAM         CLEAR     59  57  94 NE3       30.10R
$$
                ***SASKATCHEWAN***

CITY           SKY/WX    TMP DP  RH WIND       PRES   REMARKS
ESTEVAN        CLEAR     61  57  88 SE3       30.23S
KINDERSLEY     CLEAR     63  57  82 E10       30.22R
LLOYDMINSTER   CLEAR     64  59  82 SE5       30.20S
PRINCE ALBERT  PTCLDY    59  57  94 NE2       30.19S
REGINA         CLEAR     64  61  88 S7        30.22F
YORKTON        CLEAR     63  57  82 S5        30.21S


USA.gov is the U.S. government's official web portal to all federal, state and local government web resources and services.